[[{"header":{"parameterUnit":"m.s-1","parameterCategory":1,"la1":30.2992,"la2":30.254,"lo1":-89.0895,"lo2":-89.0443,"dy":0.0025,"dx":0.0025,"nx":19,"ny":19,"refTime":"2026-05-10T09:00:00:Z","depth":0,"parameterNumber":2,"parameterNumberName":"U-component_of_WINDS"},"data":[0,0,0,-0.5575,-0.5576,-0.5617,-0.5617,-0.5678,-0.5679,0,0,0,0,0,0,0,0,0,0,0,-0.5566,-0.5567,-0.5575,-0.5576,-0.5617,-0.5617,-0.5678,-0.5679,0,0,0,0,0,0,0,0,0,0,0,-0.5566,-0.5567,-0.5567,-0.5576,-0.5617,-0.5617,-0.5678,-0.5644,0,0,0,0,0,0,0,0,0,0,-0.5603,-0.5598,-0.5566,-0.5567,-0.5576,-0.5617,-0.5617,-0.5642,-0.5646,-0.5663,0,-0.5676,0,-0.5678,-0.5683,-0.5683,0,0,0,-0.5574,-0.5595,-0.5603,-0.5567,-0.5577,-0.5617,-0.5598,-0.5644,-0.5649,-0.5668,-0.5677,-0.5679,-0.5679,-0.5683,-0.5684,-0.5781,-0.5782,0,0,-0.5572,-0.5576,-0.56,-0.5606,-0.5598,-0.5596,-0.5599,-0.5647,-0.5658,-0.5677,-0.5681,-0.568,-0.5684,-0.5684,-0.5781,-0.5782,0,0,0,-0.5566,-0.5574,-0.5581,-0.5603,-0.561,-0.5598,-0.5601,-0.5656,-0.5658,-0.5681,-0.5681,-0.5684,-0.5685,-0.578,-0.5781,-0.5812,0,0,0,-0.5565,-0.5571,-0.558,-0.5583,-0.5609,-0.5633,-0.5609,-0.5654,-0.566,-0.5681,-0.5684,-0.5686,-0.578,-0.5781,-0.581,-0.5827,0,0,0,-0.5562,-0.5571,-0.5578,-0.5583,-0.5601,-0.5632,-0.5637,-0.5655,-0.566,-0.5683,-0.5686,-0.5779,-0.578,-0.5808,-0.5824,-0.5854,0,0,0,-0.5561,-0.5606,-0.5579,-0.5628,-0.56,-0.5651,-0.5636,-0.5674,-0.5698,-0.5685,-0.578,-0.5781,-0.5808,-0.5822,-0.5852,-0.5881,-0.5893,0,0,-0.562,-0.5613,-0.5642,-0.5619,-0.5675,-0.5644,-0.5706,-0.5724,-0.5723,-0.5762,-0.5765,-0.5811,-0.5823,-0.5854,-0.5959,-0.5968,0,0,0,-0.5662,-0.5683,-0.5697,-0.5719,-0.5733,-0.5748,-0.5756,-0.5763,-0.5796,-0.5744,-0.583,-0.5837,-0.5855,-0.5868,-0.5877,-0.5892,-0.5787,-0.5787,-0.5787,-0.5752,-0.5747,-0.5795,-0.5795,-0.5817,-0.5825,-0.5843,-0.5854,-0.5844,-0.5865,-0.5876,-0.594,-0.5956,-0.5963,-0.5979,-0.5891,-0.5891,-0.5891,-0.5891,-0.5838,-0.5867,-0.5851,-0.5892,-0.5888,-0.5923,-0.5933,-0.5925,-0.5958,-0.5931,-0.5946,-0.5918,-0.5973,-0.5987,-0.5893,-0.5893,-0.5893,-0.5893,-0.5892,-0.5896,-0.5909,-0.5916,-0.5948,-0.5974,-0.5973,-0.6005,-0.6,-0.5996,-0.6011,-0.6024,-0.6023,-0.6023,-0.6017,-0.6018,-0.6018,-0.6018,-0.6018,-0.6018,-0.5954,-0.5961,-0.5988,-0.6007,-0.6021,-0.6039,-0.6048,-0.6062,-0.6076,-0.607,-0.6071,-0.6059,-0.5979,-0.5959,-0.6022,-0.6021,-0.6021,-0.602,-0.602,-0.6044,-0.6023,-0.6064,-0.6078,-0.6101,-0.6127,-0.612,-0.6149,-0.616,-0.6177,-0.6162,-0.6103,-0.6096,-0.609,-0.6074,-0.6162,-0.6162,-0.6162,-0.6162,-0.6094,-0.6089,-0.6131,-0.6154,-0.6175,-0.6173,-0.6222,-0.623,-0.6236,-0.6243,-0.6229,-0.6207,-0.62,-0.6197,-0.6189,-0.6173,-0.6285,-0.6285,-0.6285,-0.6149,-0.6147,-0.6188,-0.6192,-0.6209,-0.6225,-0.6271,-0.6299,-0.6301,-0.629,-0.6248,-0.6243,-0.6207,-0.6196,-0.6185,-0.6171,-0.6143,0,0]},{"header":{"parameterUnit":"m.s-1","parameterCategory":1,"la1":30.2992,"la2":30.254,"lo1":-89.0895,"lo2":-89.0443,"dy":0.0025,"dx":0.0025,"nx":19,"ny":19,"refTime":"2026-05-10T09:00:00:Z","depth":0,"parameterNumber":3,"parameterNumberName":"V-component_of_WINDS"},"data":[0,0,0,1.6577,1.6578,1.6642,1.6642,1.6734,1.6735,0,0,0,0,0,0,0,0,0,0,0,1.6565,1.6566,1.6577,1.6578,1.6642,1.6642,1.6734,1.6735,0,0,0,0,0,0,0,0,0,0,0,1.6565,1.6566,1.6567,1.6579,1.6642,1.6642,1.6733,1.6682,0,0,0,0,0,0,0,0,0,0,1.6618,1.6615,1.6566,1.6567,1.6579,1.6641,1.6642,1.6679,1.6685,1.671,0,1.6735,0,1.6736,1.6742,1.6742,0,0,0,1.6573,1.661,1.662,1.6567,1.658,1.6641,1.6612,1.6682,1.6689,1.6718,1.6736,1.6739,1.6738,1.6742,1.6743,1.6905,1.6906,0,0,1.657,1.6581,1.6616,1.6625,1.6617,1.661,1.6614,1.6686,1.6706,1.6736,1.6741,1.6739,1.6743,1.6744,1.6904,1.6905,0,0,0,1.6563,1.6579,1.6587,1.6622,1.6632,1.6612,1.6616,1.6703,1.6705,1.6742,1.674,1.6744,1.6745,1.6903,1.6904,1.6964,0,0,0,1.6561,1.6575,1.6586,1.6593,1.6631,1.6669,1.6632,1.67,1.6708,1.674,1.6744,1.6746,1.6902,1.6904,1.696,1.6991,0,0,0,1.6559,1.6574,1.6586,1.6594,1.6621,1.6667,1.6673,1.6701,1.6707,1.6742,1.6746,1.6901,1.6903,1.6957,1.6985,1.7036,0,0,0,1.656,1.664,1.6587,1.6676,1.6621,1.6704,1.6672,1.6734,1.6771,1.6744,1.6902,1.6904,1.6956,1.6981,1.7032,1.7081,1.7102,0,0,1.6667,1.6653,1.6704,1.6659,1.6754,1.6693,1.6797,1.6821,1.6815,1.6875,1.6879,1.6962,1.6985,1.7035,1.7218,1.7236,0,0,0,1.6742,1.6778,1.6801,1.6837,1.6856,1.6875,1.6882,1.689,1.694,1.6848,1.6994,1.7007,1.7036,1.7059,1.7073,1.7097,1.6915,1.6915,1.6915,1.691,1.6896,1.6979,1.6972,1.7007,1.7011,1.7038,1.705,1.7027,1.7061,1.7079,1.7192,1.7219,1.723,1.7255,1.7104,1.7104,1.7105,1.7105,1.7065,1.7114,1.7079,1.7147,1.7132,1.7188,1.7195,1.7177,1.7227,1.7178,1.7203,1.7151,1.7249,1.727,1.7109,1.7108,1.7108,1.7107,1.7107,1.7173,1.7194,1.7202,1.725,1.7289,1.7279,1.7328,1.7312,1.7298,1.7323,1.7339,1.7338,1.7334,1.7332,1.7332,1.7332,1.7333,1.7333,1.7333,1.7282,1.7289,1.7332,1.7358,1.7377,1.7401,1.7405,1.7424,1.744,1.7425,1.7425,1.7398,1.7261,1.7227,1.7339,1.7338,1.7337,1.7337,1.7336,1.7444,1.7404,1.7471,1.749,1.7518,1.7556,1.7535,1.7574,1.7587,1.7611,1.7578,1.748,1.7465,1.7453,1.7425,1.7581,1.7581,1.7581,1.7581,1.7535,1.7525,1.7588,1.762,1.7649,1.7636,1.771,1.7714,1.7711,1.7718,1.7693,1.7653,1.7642,1.7634,1.7618,1.7591,1.7787,1.7787,1.7787,1.7633,1.7625,1.7692,1.7687,1.7707,1.7724,1.7793,1.783,1.7819,1.7795,1.7722,1.7714,1.765,1.7631,1.7606,1.7582,1.7532,0,0]}]]